ECMWFNIL_925_temp_162.txt.gz
Temp
19 19 19 19 19 19 19 19 19 19 19 19 19 19 19 19 18 17 16 16 15 15 14 14 14 14 14 14 14 14 14 14 14 14 14 14 13 13 13 13 13 13
19 19 19 19 18 19 19 19 19 19 19 19 19 19 19 18 17 17 16 16 16 15 14 14 14 14 14 14 14 14 14 13 14 14 14 14 14 14 13 13 13 13
19 19 19 19 19 19 19 19 19 19 19 19 19 18 18 18 17 17 16 16 16 15 15 14 14 14 14 14 14 13 13 13 13 13 13 14 14 14 14 13 13 13
18 18 18 19 19 19 19 19 18 18 18 18 18 18 17 17 17 16 16 16 16 15 15 14 14 14 14 14 13 13 13 13 13 13 13 13 13 13 13 13 13 13
18 18 18 18 18 18 18 18 18 18 18 18 18 17 17 17 17 16 16 16 16 15 15 15 14 14 14 13 13 13 13 13 13 13 13 13 13 13 13 13 13 13
18 18 18 18 18 18 17 17 17 18 17 17 17 17 17 16 16 16 16 16 15 15 15 15 14 14 13 13 13 13 13 13 13 13 13 13 13 13 13 13 13 13
17 17 17 17 17 17 17 17 17 17 17 17 16 16 16 16 15 15 15 15 15 15 15 14 14 13 13 13 13 13 13 13 13 13 13 13 13 13 13 13 13 13
17 17 17 16 16 16 16 16 16 16 16 16 16 16 16 15 15 15 15 15 15 15 14 14 14 13 13 13 13 13 13 13 13 13 13 13 13 13 13 13 13 13
16 16 16 16 15 15 16 16 16 16 16 15 15 15 15 15 15 15 15 14 14 14 14 13 13 13 13 13 13 13 13 13 13 13 13 13 13 13 13 13 13 13
14 15 15 15 15 15 15 15 15 15 15 15 15 14 14 14 14 14 14 14 13 13 13 13 13 13 13 12 12 12 12 12 12 12 12 12 12 12 13 13 12 12
14 14 14 14 15 15 15 15 15 15 15 14 14 14 14 13 13 13 13 13 13 13 13 13 12 12 12 12 12 12 12 12 12 12 12 12 12 12 12 12 12 12
14 14 15 16 15 15 15 15 14 14 14 14 14 14 13 12 12 13 13 13 13 12 12 12 12 12 12 12 12 12 12 12 12 12 12 12 12 12 12 12 12 12
13 14 15 16 15 15 15 15 15 14 14 14 14 14 13 12 12 13 14 14 13 13 12 12 12 12 12 12 12 12 12 12 12 12 12 12 12 12 12 12 12 12
14 14 14 14 13 13 14 14 14 14 14 14 14 14 13 14 14 14 14 14 14 14 13 13 12 11 12 12 12 12 12 11 11 11 11 12 12 12 12 12 12 12
14 13 13 12 12 13 14 14 14 14 15 14 14 14 14 14 14 14 14 14 14 14 14 13 12 12 12 12 12 12 12 12 11 11 11 11 11 12 12 12 12 12
13 12 12 12 12 13 14 14 14 15 15 14 14 14 14 14 14 14 14 14 14 13 13 12 12 12 12 12 12 12 12 12 12 12 12 12 11 11 11 11 11 11
12 12 12 12 13 14 14 14 15 15 15 14 14 14 14 14 14 13 13 13 13 12 12 12 11 11 12 12 12 12 12 12 12 12 12 12 12 11 11 11 10 10
12 12 12 12 13 14 14 14 15 14 14 14 13 13 13 13 12 12 12 11 11 11 11 11 11 12 12 12 12 12 12 12 12 12 12 12 12 11 11 10 10 10
11 11 11 12 13 13 14 14 14 13 13 13 13 12 11 11 10 10 10 11 11 11 11 11 11 12 12 12 12 12 12 12 12 12 11 11 11 10 10 10 9 9
11 10 11 12 12 12 12 12 12 12 12 11 11 10 10 10 10 10 10 11 11 11 11 11 11 11 11 11 11 11 11 11 11 11 10 10 10 10 10 9 9 9
10 10 10 10 10 10 10 10 10 9 9 9 9 10 10 10 10 10 10 10 10 10 11 11 11 11 11 11 11 11 10 10 10 10 10 9 9 9 9 9 9 9
10 10 9 9 9 9 9 9 9 8 9 9 10 10 10 10 10 9 10 10 10 10 10 10 10 10 10 10 10 10 10 9 9 9 9 8 8 8 8 8 8 8
10 9 9 9 8 8 8 9 9 9 9 10 10 9 9 9 9 9 9 9 9 9 9 9 9 10 10 9 9 9 9 8 8 8 8 8 7 7 7 7 7 7
10 9 9 9 8 8 9 9 9 9 9 10 10 9 9 8 8 8 8 8 9 9 9 9 9 10 9 9 8 8 8 8 7 7 7 6 6 6 6 6 6 7
10 9 9 9 8 9 10 9 9 9 9 9 9 9 8 8 8 8 7 7 8 8 8 9 9 9 9 8 7 7 7 7 7 7 5 4 4 4 4 5 5 6
10 9 9 9 9 9 9 9 8 8 8 8 8 8 7 7 7 7 7 6 6 7 7 7 8 8 8 7 7 6 6 6 7 6 5 4 3 3 3 4 4 4

ECMWFNIL_925_temp_168.txt.gz
Temp
21 21 21 21 20 20 20 20 20 20 20 20 21 21 21 20 20 20 19 19 18 18 18 17 17 17 16 16 16 16 16 16 16 15 15 15 15 15 14 14 14 14
21 21 21 20 20 20 20 20 20 20 20 20 20 21 21 21 21 20 20 19 19 18 18 18 17 17 16 16 16 16 16 16 16 16 15 15 15 15 14 14 14 14
21 21 20 20 20 20 20 20 20 20 20 20 20 20 20 21 21 21 20 20 19 19 18 18 17 17 17 16 16 16 16 16 16 16 15 15 15 15 15 14 14 14
20 20 20 20 20 20 20 19 19 19 19 20 20 20 20 20 20 21 21 20 20 19 19 18 18 17 17 16 16 16 15 15 16 16 15 15 15 15 15 14 14 14
20 20 20 20 19 19 19 19 19 19 19 19 19 20 20 20 20 20 20 20 20 19 19 18 18 17 17 16 16 16 15 15 15 15 15 15 15 15 15 14 14 14
19 19 19 19 19 19 19 19 19 19 19 19 19 19 19 19 20 20 20 20 20 19 19 18 17 17 17 16 16 16 15 15 15 15 15 15 15 15 14 14 14 14
19 19 19 19 19 19 19 19 19 19 19 19 19 19 19 19 19 19 19 19 19 19 18 18 18 17 17 16 16 16 15 15 15 15 14 14 14 14 14 14 14 14
19 19 19 18 18 18 18 18 18 18 18 18 18 18 18 18 19 19 19 19 19 19 18 18 18 17 17 16 16 15 15 15 15 14 14 14 14 14 14 14 14 14
19 19 18 18 18 18 17 17 18 18 18 18 18 18 18 18 18 18 18 18 18 18 18 18 17 17 17 16 16 16 15 15 15 14 14 14 14 14 14 14 14 14
20 19 19 18 18 17 17 17 17 17 17 17 17 17 17 17 17 18 18 18 18 18 17 17 17 17 16 16 16 16 15 15 15 14 14 14 14 14 14 14 14 14
20 20 19 19 18 18 17 17 16 16 16 16 16 16 16 17 17 17 17 17 17 17 17 17 17 16 16 16 16 16 15 15 15 14 14 14 14 14 14 14 13 13
19 20 20 20 19 18 18 17 16 16 16 16 16 16 16 16 16 16 17 17 17 17 17 17 16 16 16 16 16 16 15 15 15 14 14 14 14 13 13 13 13 13
19 19 19 20 19 19 18 17 16 15 15 16 16 15 15 15 15 16 16 16 16 16 16 16 16 16 16 16 15 15 15 15 15 14 14 14 14 13 13 13 13 13
18 19 19 19 19 18 18 17 16 15 15 15 15 15 15 15 15 15 15 16 16 16 16 16 16 16 15 15 15 15 15 15 15 14 14 14 13 13 13 13 13 13
18 18 18 18 18 18 18 17 17 16 15 15 15 14 14 14 14 14 14 15 15 15 15 15 15 15 15 15 15 15 15 15 14 14 14 13 13 13 13 13 13 13
18 17 17 17 18 18 18 18 18 17 16 15 15 14 14 14 14 13 13 14 14 14 14 14 15 15 15 15 15 15 14 14 14 14 13 13 13 12 12 12 12 12
16 16 16 17 17 18 18 18 18 17 16 15 15 14 14 13 13 13 13 13 13 13 14 14 14 14 14 14 14 14 14 14 13 13 13 12 12 12 12 12 12 12
16 16 16 16 16 17 17 17 17 17 16 15 14 14 13 13 12 12 12 12 12 12 13 13 13 14 14 14 14 14 14 13 13 12 12 12 12 12 12 12 12 12
16 15 16 16 16 16 16 17 16 16 16 15 14 14 12 12 12 12 12 11 11 11 12 12 12 13 13 13 13 13 13 13 12 12 12 12 11 11 11 11 11 11
15 15 15 15 16 16 16 16 15 15 15 15 14 13 12 11 11 11 11 11 10 10 10 10 11 11 11 11 11 11 12 12 12 11 11 11 11 11 11 11 10 11
15 15 15 15 15 15 15 15 15 15 15 14 13 12 12 11 11 10 10 10 10 9 8 9 10 10 9 9 10 10 11 11 11 11 11 10 10 10 10 10 10 10
14 14 14 14 14 14 14 14 14 14 14 14 13 12 12 11 10 10 9 9 9 8 7 7 9 9 8 8 8 9 9 10 10 10 10 10 10 10 10 10 10 10
13 13 13 13 13 13 12 13 13 13 13 13 12 11 11 11 10 10 9 9 9 8 6 6 7 7 6 7 7 7 8 9 9 9 9 9 9 9 10 10 10 10
9 10 11 12 12 12 12 12 12 12 12 12 11 11 11 10 10 9 9 8 8 7 6 6 6 6 6 6 6 7 7 8 8 8 8 8 9 9 9 10 10 10
7 8 9 9 10 11 11 11 11 11 11 11 10 10 10 10 9 9 8 8 8 7 6 5 6 6 5 6 6 6 7 8 8 8 7 8 8 8 8 8 8 8
5 6 7 8 8 9 9 10 10 10 10 10 10 9 9 9 9 8 8 8 7 7 6 6 6 6 6 6 6 6 7 8 7 7 7 7 7 6 6 6 6 6

ECMWFNIL_925_temp_174.txt.gz
Temp
19 19 19 19 19 18 18 18 18 18 18 18 18 18 18 18 18 18 18 18 18 18 18 18 17 17 16 16 15 15 15 15 15 15 14 14 14 14 14 14 14 13
19 19 19 19 19 19 19 19 19 18 18 18 18 18 18 18 18 18 18 18 18 18 18 18 17 17 16 16 16 15 15 15 15 15 14 14 14 14 14 14 14 14
20 19 19 19 19 19 19 19 19 19 18 18 18 18 18 18 18 18 18 18 18 18 18 18 18 17 17 16 16 15 15 15 15 15 14 14 14 14 14 14 14 14
20 19 19 19 19 19 19 19 19 19 19 19 19 19 18 18 18 18 18 18 18 18 18 18 17 17 17 17 16 15 15 15 15 15 14 14 14 14 14 14 14 14
20 20 20 19 19 19 19 19 19 19 19 19 19 19 19 18 18 18 18 18 18 18 18 17 17 17 17 17 16 16 15 15 15 15 14 14 14 14 14 14 14 14
21 20 20 20 20 19 19 19 19 19 19 19 19 19 19 18 18 18 18 18 17 17 17 17 17 17 17 17 16 16 15 15 15 15 14 14 14 14 14 14 14 14
20 21 20 20 20 20 19 20 20 20 19 19 19 19 19 18 18 18 18 17 17 17 17 17 17 17 17 16 16 16 15 15 15 15 14 14 14 14 14 14 14 14
20 20 20 20 20 20 20 20 20 20 20 19 19 19 18 18 18 18 17 17 16 16 16 16 16 16 16 16 16 16 15 15 15 15 14 14 14 14 14 14 14 14
19 19 19 19 19 19 19 19 19 20 19 19 18 18 18 18 18 18 17 17 16 16 16 15 16 16 16 16 16 15 15 15 15 15 15 14 14 14 14 14 14 14
18 18 18 18 18 19 19 19 19 19 19 18 18 18 18 18 18 17 17 17 16 16 16 15 15 15 15 15 15 15 15 15 15 15 15 14 14 14 14 14 14 14
18 18 18 18 18 18 18 18 18 18 18 17 17 18 18 18 18 17 17 16 16 16 16 16 15 15 15 15 15 15 15 15 15 15 15 15 14 14 14 14 14 14
18 18 17 17 16 16 16 17 17 17 17 17 17 17 18 18 18 17 17 16 16 16 16 16 16 15 15 14 14 14 14 14 14 14 14 14 14 14 14 14 14 14
16 16 15 15 15 16 16 16 16 16 16 17 17 17 17 17 17 17 16 15 15 15 15 15 15 15 15 15 14 14 13 13 14 14 14 14 14 14 14 14 14 14
14 14 14 14 15 15 15 15 15 15 16 16 16 16 16 16 16 16 15 15 15 15 15 15 15 15 15 15 15 14 14 13 13 13 13 14 14 14 14 14 14 14
12 13 13 13 14 14 14 14 14 14 15 15 15 15 15 15 15 15 15 14 14 15 15 14 14 14 14 14 14 14 13 13 13 13 13 13 13 13 13 13 13 13
11 11 12 12 12 13 13 13 13 13 13 14 14 14 15 15 15 15 15 14 14 14 14 14 13 13 14 13 13 13 12 12 12 12 12 13 13 13 13 13 13 13
9 10 10 10 11 11 12 12 12 12 12 12 13 13 13 14 14 14 14 14 13 13 13 13 13 13 13 12 12 12 12 12 11 11 11 12 12 12 12 12 13 13
7 8 8 8 8 9 9 10 10 11 11 11 11 11 11 12 12 12 12 13 12 12 12 12 13 13 13 12 11 12 11 11 11 11 10 10 11 11 12 12 12 12
6 7 7 7 7 7 8 8 8 9 9 9 9 9 10 10 10 11 11 11 11 11 11 11 12 13 12 11 11 11 11 10 10 10 9 9 10 10 11 11 12 12
5 6 6 6 6 6 7 7 7 7 7 6 6 7 8 8 9 9 9 9 9 9 9 10 11 11 11 10 10 10 10 9 9 9 9 8 8 9 9 10 11 11
1 2 3 3 3 4 5 5 5 5 5 4 4 5 5 5 6 7 7 8 8 8 8 8 10 10 9 9 9 9 9 9 9 9 8 7 7 7 8 8 9 10
-2 -2 -1 -1 0 1 1 2 2 3 3 3 3 4 4 4 4 5 5 6 6 6 6 7 8 9 8 8 8 8 8 8 8 8 7 7 7 7 7 7 8 8
-3 -3 -2 -2 -1 -1 -1 -0 0 1 1 2 2 3 3 3 3 4 4 4 5 5 5 5 7 8 7 7 7 7 7 7 7 6 6 6 6 6 6 6 6 7
-3 -2 -2 -2 -2 -1 -1 -0 0 1 1 1 1 1 2 3 3 3 4 4 4 4 4 4 5 7 6 6 6 6 6 6 6 5 5 5 5 5 5 5 5 6
-2 -2 -2 -2 -1 -1 -1 -0 0 1 1 1 1 1 2 2 2 2 3 4 3 3 4 4 4 5 5 5 5 5 5 5 5 4 4 4 4 4 4 5 5 5
-3 -2 -2 -2 -1 -1 -1 -1 -0 0 1 1 1 1 2 2 2 2 2 3 3 3 3 3 3 4 5 4 4 4 4 4 4 4 4 4 4 4 4 4 4 5

ECMWFNIL_925_temp_180.txt.gz
Temp
16 16 16 16 16 16 16 17 17 16 17 17 17 17 17 18 18 18 17 17 17 17 17 17 16 16 16 16 16 15 15 14 14 14 14 14 14 14 14 14 14 14
16 16 16 16 16 16 17 17 16 16 16 16 16 16 17 17 17 17 17 17 17 16 17 16 16 16 16 16 15 15 15 14 14 14 14 14 14 14 14 14 14 14
17 17 16 16 16 17 17 17 16 16 16 16 16 16 16 16 16 16 16 16 16 16 16 16 16 16 16 16 15 15 14 14 14 14 14 14 14 14 14 14 14 14
17 17 17 16 16 16 16 16 16 16 16 16 16 16 16 16 16 16 16 16 16 16 16 16 15 15 15 15 15 15 14 14 14 14 14 14 14 14 14 14 14 14
17 17 17 17 17 17 16 16 16 16 16 16 16 16 16 16 16 16 16 16 15 15 15 15 15 15 15 15 15 14 14 14 14 14 14 14 14 13 14 13 13 13
17 17 17 17 17 17 17 17 16 16 15 15 15 15 15 15 15 15 15 15 15 15 15 15 15 15 15 14 14 14 14 14 14 14 13 13 13 13 13 13 13 13
16 16 17 17 17 17 17 17 16 16 15 15 15 15 15 15 15 15 15 15 15 15 15 15 15 15 15 14 14 14 14 13 13 13 13 13 13 13 13 13 13 13
13 14 15 16 16 16 16 16 16 16 16 16 16 16 16 16 16 16 16 15 15 15 15 15 15 15 15 14 14 14 14 13 13 13 13 13 13 13 13 13 13 13
10 11 12 13 14 15 15 16 16 16 16 16 16 16 16 16 16 16 16 16 15 15 15 15 15 14 14 14 14 14 13 13 13 13 13 12 12 12 13 13 12 13
9 9 9 10 11 12 13 15 15 16 16 16 16 16 16 16 16 16 16 16 15 15 15 14 14 14 14 13 13 13 13 13 13 12 12 12 12 12 12 12 12 12
7 8 8 8 8 9 10 11 13 14 15 15 15 15 15 15 15 15 15 15 15 15 15 14 14 13 13 13 13 13 13 12 12 12 12 12 12 12 12 12 12 12
6 6 6 7 7 7 8 8 10 11 13 14 14 14 14 14 14 14 14 14 14 14 14 14 14 13 13 12 12 12 12 12 12 11 11 11 11 11 11 11 11 11
5 5 5 6 6 7 7 7 8 8 10 11 12 13 13 13 13 13 13 13 12 12 12 13 13 12 12 12 12 11 11 10 10 10 10 10 11 11 10 10 10 10
3 4 4 5 5 6 6 6 7 7 7 8 10 11 11 12 12 12 12 12 12 12 12 11 11 11 11 11 11 11 10 10 9 9 9 9 9 10 10 10 10 9
1 3 4 4 5 5 5 5 5 6 6 7 7 8 9 10 11 11 11 11 12 11 11 11 10 10 10 10 10 10 9 9 9 9 8 8 9 9 9 9 9 9
-1 0 2 3 3 3 3 3 4 4 4 5 5 6 7 8 9 9 9 10 10 11 11 10 9 8 8 8 8 8 8 8 8 8 8 8 8 8 8 9 9 9
-3 -3 -2 -0 0 1 1 1 2 3 3 4 4 4 5 5 6 7 8 8 8 9 10 9 7 7 7 7 7 7 7 7 7 7 7 7 7 7 7 8 8 8
-4 -4 -4 -3 -2 -1 -1 -0 0 1 2 3 3 3 3 3 4 5 5 6 7 7 8 7 6 6 6 6 5 6 6 6 6 6 6 6 6 6 6 6 7 7
-4 -4 -4 -4 -4 -3 -2 -2 -2 -1 -0 1 1 1 2 2 2 3 3 4 4 5 6 6 5 5 5 4 4 4 4 4 5 5 5 5 5 5 5 6 6 6
-4 -4 -4 -4 -4 -3 -3 -3 -3 -2 -2 -1 0 0 1 1 1 1 2 2 2 3 4 4 4 4 4 4 4 4 3 3 3 4 4 5 5 5 5 5 5 5
-5 -5 -5 -4 -4 -3 -3 -3 -3 -3 -2 -2 -1 -1 -1 -1 -0 -0 1 1 1 2 3 3 3 3 3 3 3 3 3 2 2 3 3 4 4 4 4 4 4 4
-6 -6 -5 -5 -4 -4 -4 -3 -3 -2 -3 -2 -2 -2 -2 -2 -2 -2 -1 -1 -0 -0 -0 -0 0 2 2 1 2 2 2 2 2 2 3 3 4 3 3 2 2 2
-7 -6 -6 -5 -5 -4 -4 -3 -3 -3 -3 -2 -2 -3 -3 -3 -3 -3 -3 -3 -3 -2 -3 -3 -2 -0 -0 -1 -0 1 1 1 2 2 2 3 3 2 1 1 1 1
-7 -7 -7 -6 -5 -5 -4 -3 -3 -3 -3 -3 -3 -3 -3 -3 -3 -4 -4 -4 -4 -4 -4 -4 -3 -2 -2 -2 -2 -1 -1 -1 -0 0 0 0 0 0 0 0 0 1
-7 -8 -7 -6 -5 -5 -4 -4 -3 -3 -3 -3 -3 -4 -4 -4 -4 -4 -4 -4 -4 -4 -4 -4 -4 -3 -3 -3 -2 -2 -2 -2 -2 -2 -1 -1 -1 -1 -1 -1 -1 -0
-7 -7 -7 -6 -6 -5 -5 -5 -4 -4 -4 -4 -4 -4 -4 -4 -4 -4 -4 -4 -4 -4 -4 -4 -4 -4 -4 -3 -3 -2 -2 -2 -2 -2 -2 -2 -2 -2 -2 -2 -1 -1